Location: Grandview
(34.8900°N, 117.1058°W)
Time: 14:58:31
(UTC-07:00)

ISS - Pass Details

Date: 12 October 2017
Orbit: 401 x 408 km, 51.6° (Epoch: 20 October)

Event Time Altitude Azimuth Distance (km) Brightness Sun altitude
Rises 19:40:59 0° 321° (NW) 2,323 0.7 -18.0°
Reaches altitude 10° 19:43:14 10° 332° (NNW) 1,462 -0.6 -18.5°
Enters shadow 19:45:33 28° 13° (NNE) 796 -2.5 -19.0°
